Year,Month,Day,Hour,Minute,Value (Times are PST for temperature in C)
2013,09,30,00,00,11.00
2013,09,30,00,01,11.10
2013,09,30,00,02,11.10
2013,09,30,00,03,11.20
2013,09,30,00,04,11.20
2013,09,30,00,05,11.30
2013,09,30,00,06,11.30
2013,09,30,00,07,11.40
2013,09,30,00,08,11.40
2013,09,30,00,09,11.40
2013,09,30,00,10,11.40
2013,09,30,00,11,11.40
2013,09,30,00,12,11.40
2013,09,30,00,17,11.40
2013,09,30,00,18,11.40
2013,09,30,00,19,11.40
2013,09,30,00,20,11.40
2013,09,30,00,21,11.40
2013,09,30,00,22,11.30
2013,09,30,00,23,11.30
2013,09,30,00,24,11.30
2013,09,30,00,25,11.30
2013,09,30,00,26,11.30
2013,09,30,00,27,11.30
2013,09,30,00,28,11.30
2013,09,30,00,29,11.30
2013,09,30,00,30,11.30
2013,09,30,00,31,11.40
2013,09,30,00,32,11.30
2013,09,30,00,33,11.20
2013,09,30,00,34,11.00
2013,09,30,00,35,10.70
2013,09,30,00,36,10.50
2013,09,30,00,37,10.20
2013,09,30,00,38,9.90
2013,09,30,00,39,9.70
2013,09,30,00,40,9.50
2013,09,30,00,41,9.40
2013,09,30,00,42,9.30
2013,09,30,00,43,9.20
2013,09,30,00,44,9.20
2013,09,30,00,45,9.20
2013,09,30,00,46,9.10
2013,09,30,00,47,9.10
2013,09,30,00,48,9.10
2013,09,30,00,49,9.00
2013,09,30,00,50,9.00
2013,09,30,00,51,9.00
2013,09,30,00,52,9.00
2013,09,30,00,53,9.10
2013,09,30,00,54,9.20
2013,09,30,00,55,9.20
2013,09,30,00,56,9.20
2013,09,30,00,57,9.30
2013,09,30,00,58,9.30
2013,09,30,00,59,9.30
2013,09,30,01,00,9.30
2013,09,30,01,01,9.30
2013,09,30,01,02,9.30
2013,09,30,01,03,9.30
2013,09,30,01,04,9.30
2013,09,30,01,05,9.40
2013,09,30,01,06,9.40
2013,09,30,01,07,9.40
2013,09,30,01,08,9.40
2013,09,30,01,09,9.40
2013,09,30,01,10,9.40
2013,09,30,01,11,9.40
2013,09,30,01,12,9.40
2013,09,30,01,13,9.50
2013,09,30,01,14,9.60
2013,09,30,01,15,9.60
2013,09,30,01,16,9.70
2013,09,30,01,17,9.80
2013,09,30,01,18,9.80
2013,09,30,01,19,9.90
2013,09,30,01,20,10.00
2013,09,30,01,21,10.10
2013,09,30,01,22,10.20
2013,09,30,01,23,10.30
2013,09,30,01,24,10.30
2013,09,30,01,25,10.10
2013,09,30,01,26,10.00
2013,09,30,01,27,9.70
2013,09,30,01,28,9.40
2013,09,30,01,29,9.20
2013,09,30,01,30,9.00
2013,09,30,01,31,8.90
2013,09,30,01,32,8.80
2013,09,30,01,33,8.70
2013,09,30,01,34,8.60
2013,09,30,01,35,8.60
2013,09,30,01,36,8.60
2013,09,30,01,37,8.60
2013,09,30,01,38,8.60
2013,09,30,01,39,8.70
2013,09,30,01,40,8.70
2013,09,30,01,41,8.70
2013,09,30,01,42,8.70
2013,09,30,01,43,8.70
2013,09,30,01,44,8.70
2013,09,30,01,45,8.60
2013,09,30,01,46,8.60
2013,09,30,01,47,8.60
2013,09,30,01,48,8.60
2013,09,30,01,49,8.60
2013,09,30,01,50,8.50
2013,09,30,01,51,8.50
2013,09,30,01,52,8.50
2013,09,30,01,53,8.50
2013,09,30,01,54,8.50
2013,09,30,01,55,8.50
2013,09,30,01,56,8.50
2013,09,30,01,57,8.60
2013,09,30,01,58,8.60
2013,09,30,01,59,8.60
2013,09,30,02,00,8.60
2013,09,30,02,01,8.70
2013,09,30,02,02,8.70
2013,09,30,02,03,8.70
2013,09,30,02,04,8.80
2013,09,30,02,05,8.90
2013,09,30,02,06,9.00
2013,09,30,02,07,9.20
2013,09,30,02,08,9.40
2013,09,30,02,09,9.50
2013,09,30,02,10,9.70
2013,09,30,02,11,9.90
2013,09,30,02,12,10.00
2013,09,30,02,13,10.20
2013,09,30,02,14,10.30
2013,09,30,02,15,10.30
2013,09,30,02,16,10.30
2013,09,30,02,17,10.30
2013,09,30,02,18,10.30
2013,09,30,02,19,10.30
2013,09,30,02,20,10.20
2013,09,30,02,21,10.20
2013,09,30,02,22,10.10
2013,09,30,02,23,10.00
2013,09,30,02,24,10.00
2013,09,30,02,25,9.90
2013,09,30,02,26,9.80
2013,09,30,02,27,9.80
2013,09,30,02,28,9.70
2013,09,30,02,29,9.70
2013,09,30,02,30,9.60
2013,09,30,02,31,9.60
2013,09,30,02,32,9.60
2013,09,30,02,33,9.60
2013,09,30,02,34,9.60
2013,09,30,02,35,9.60
2013,09,30,02,36,9.50
2013,09,30,02,37,9.50
2013,09,30,02,38,9.50
2013,09,30,02,39,9.50
2013,09,30,02,40,9.50
2013,09,30,02,41,9.50
2013,09,30,02,42,9.60
2013,09,30,02,43,9.60
2013,09,30,02,44,9.60
2013,09,30,02,45,9.60
2013,09,30,02,46,9.70
2013,09,30,02,47,9.70
2013,09,30,02,48,9.70
2013,09,30,02,49,9.80
2013,09,30,02,50,9.80
2013,09,30,02,51,9.80
2013,09,30,02,52,9.90
2013,09,30,02,53,10.00
2013,09,30,02,54,10.10
2013,09,30,02,55,10.10
2013,09,30,02,56,10.20
2013,09,30,02,57,10.20
2013,09,30,02,58,10.20
2013,09,30,02,59,10.20
2013,09,30,03,00,10.30
2013,09,30,03,01,10.30
2013,09,30,03,02,10.30
2013,09,30,03,03,10.30
2013,09,30,03,04,10.30
2013,09,30,03,05,10.30
2013,09,30,03,06,10.30
2013,09,30,03,07,10.30
2013,09,30,03,08,10.30
2013,09,30,03,09,10.30
2013,09,30,03,10,10.40
2013,09,30,03,11,10.40
2013,09,30,03,12,10.40
2013,09,30,03,13,10.40
2013,09,30,03,14,10.50
2013,09,30,03,15,10.50
2013,09,30,03,16,10.60
2013,09,30,03,17,10.60
2013,09,30,03,18,10.60
2013,09,30,03,19,10.70
2013,09,30,03,20,10.70
2013,09,30,03,21,10.70
2013,09,30,03,22,10.80
2013,09,30,03,23,10.80
2013,09,30,03,24,10.80
2013,09,30,03,25,10.70
2013,09,30,03,26,10.70
2013,09,30,03,27,10.70
2013,09,30,03,28,10.70
2013,09,30,03,29,10.70
2013,09,30,03,30,10.70
2013,09,30,03,31,10.60
2013,09,30,06,51,12.00
2013,09,30,06,52,12.00
2013,09,30,06,53,12.00
2013,09,30,06,54,12.00
2013,09,30,06,55,12.00
2013,09,30,06,56,12.10
2013,09,30,06,57,12.10
2013,09,30,06,58,12.10
2013,09,30,06,59,12.10
2013,09,30,07,00,12.10
2013,09,30,07,01,12.10
2013,09,30,07,02,12.10
2013,09,30,07,03,12.10
2013,09,30,07,04,12.10
2013,09,30,07,05,12.10
2013,09,30,07,06,12.10
2013,09,30,07,07,12.10
2013,09,30,07,08,12.10
2013,09,30,07,09,12.10
2013,09,30,07,10,12.10
2013,09,30,07,11,12.20
2013,09,30,07,12,12.20
2013,09,30,07,13,12.20
2013,09,30,07,14,12.20
2013,09,30,07,15,12.20
2013,09,30,07,16,12.20
2013,09,30,07,17,12.20
2013,09,30,07,18,12.20
2013,09,30,07,19,12.10
2013,09,30,07,20,12.10
2013,09,30,07,21,12.00
2013,09,30,07,22,12.00
2013,09,30,07,23,11.90
2013,09,30,07,24,11.80
2013,09,30,07,25,11.80
2013,09,30,07,26,11.70
2013,09,30,07,27,11.60
2013,09,30,07,28,11.50
2013,09,30,07,29,11.40
2013,09,30,07,30,11.30
2013,09,30,07,31,11.10
2013,09,30,07,32,11.00
2013,09,30,07,33,10.90
2013,09,30,07,34,10.80
2013,09,30,07,35,10.80
2013,09,30,07,36,10.70
2013,09,30,07,37,10.60
2013,09,30,07,38,10.50
2013,09,30,07,39,10.50
2013,09,30,07,40,10.40
2013,09,30,07,41,10.40
2013,09,30,07,42,10.30
2013,09,30,07,43,10.30
2013,09,30,07,44,10.30
2013,09,30,07,45,10.30
2013,09,30,07,46,10.20
2013,09,30,07,47,10.30
2013,09,30,07,48,10.20
2013,09,30,07,49,10.30
2013,09,30,07,50,10.30
2013,09,30,07,51,10.20
2013,09,30,07,52,10.20
2013,09,30,07,53,10.20
2013,09,30,07,54,10.20
2013,09,30,07,55,10.20
2013,09,30,07,56,10.20
2013,09,30,07,57,10.20
2013,09,30,07,58,10.20
2013,09,30,07,59,10.10
2013,09,30,08,00,10.10
2013,09,30,08,01,10.10
2013,09,30,08,02,10.10
2013,09,30,08,03,10.10
2013,09,30,08,04,10.10
2013,09,30,08,05,10.10
2013,09,30,08,06,10.10
2013,09,30,08,07,10.00
2013,09,30,08,08,10.00
2013,09,30,08,09,10.00
2013,09,30,08,10,9.90
2013,09,30,08,11,9.90
2013,09,30,08,12,9.90
2013,09,30,08,13,9.90
2013,09,30,08,14,9.90
2013,09,30,08,15,9.90
2013,09,30,08,16,9.90
2013,09,30,08,17,9.90
2013,09,30,08,18,9.90
2013,09,30,08,19,9.80
2013,09,30,08,20,9.80
2013,09,30,08,21,9.80
2013,09,30,08,22,9.80
2013,09,30,08,23,9.70
2013,09,30,08,24,9.70
2013,09,30,08,25,9.70
2013,09,30,08,26,9.70
2013,09,30,08,27,9.70
2013,09,30,08,28,9.70
2013,09,30,08,29,9.70
2013,09,30,08,30,9.70
2013,09,30,08,31,9.70
2013,09,30,08,32,9.70
2013,09,30,08,33,9.70
2013,09,30,08,34,9.80
2013,09,30,08,35,9.80
2013,09,30,08,36,9.80
2013,09,30,08,37,9.80
2013,09,30,08,38,9.80
2013,09,30,08,39,9.80
2013,09,30,08,40,9.80
2013,09,30,08,41,9.90
2013,09,30,08,42,9.90
2013,09,30,08,43,9.90
2013,09,30,08,44,10.00
2013,09,30,08,45,10.00
2013,09,30,08,46,10.00
2013,09,30,08,47,10.10
2013,09,30,08,48,10.10
2013,09,30,08,49,10.10
2013,09,30,08,50,10.20
2013,09,30,08,51,10.20
2013,09,30,08,52,10.20
2013,09,30,08,53,10.20
2013,09,30,08,54,10.20
2013,09,30,08,55,10.20
2013,09,30,08,56,10.20
2013,09,30,08,57,10.20
2013,09,30,08,58,10.30
2013,09,30,08,59,10.30
2013,09,30,09,00,10.30
2013,09,30,09,01,10.30
2013,09,30,09,02,10.30
2013,09,30,09,03,10.30
2013,09,30,09,04,10.30
2013,09,30,09,05,10.30
2013,09,30,09,06,10.30
2013,09,30,09,07,10.30
2013,09,30,09,08,10.30
2013,09,30,09,09,10.30
2013,09,30,09,10,10.30
2013,09,30,09,11,10.30
2013,09,30,09,12,10.30
2013,09,30,09,13,10.20
2013,09,30,09,14,10.20
2013,09,30,09,15,10.20
2013,09,30,09,16,10.20
2013,09,30,09,17,10.20
2013,09,30,09,18,10.20
2013,09,30,09,19,10.20
2013,09,30,09,20,10.30
2013,09,30,09,21,10.30
2013,09,30,09,22,10.30
2013,09,30,09,23,10.30
2013,09,30,09,24,10.30
2013,09,30,09,25,10.30
2013,09,30,09,26,10.30
2013,09,30,09,27,10.30
2013,09,30,09,28,10.40
2013,09,30,09,29,10.40
2013,09,30,09,30,10.40
2013,09,30,09,31,10.40
2013,09,30,09,32,10.40
2013,09,30,09,33,10.40
2013,09,30,09,34,10.50
2013,09,30,09,35,10.50
2013,09,30,09,36,10.50
2013,09,30,09,37,10.60
2013,09,30,09,38,10.60
2013,09,30,09,39,10.60
2013,09,30,09,40,10.60
2013,09,30,09,41,10.70
2013,09,30,09,42,10.70
2013,09,30,09,43,10.70
2013,09,30,09,44,10.70
2013,09,30,09,45,10.70
2013,09,30,09,46,10.80
2013,09,30,09,47,10.80
2013,09,30,09,48,10.80
2013,09,30,09,49,10.90
2013,09,30,09,50,10.90
2013,09,30,09,51,10.90
2013,09,30,09,52,11.00
2013,09,30,09,53,11.00
2013,09,30,09,54,11.10
2013,09,30,09,55,11.10
2013,09,30,09,56,11.20
2013,09,30,09,57,11.20
2013,09,30,09,58,11.30
2013,09,30,09,59,11.30
2013,09,30,10,00,11.30
2013,09,30,10,01,11.40
2013,09,30,10,02,11.40
2013,09,30,10,03,11.50
2013,09,30,10,04,11.60
2013,09,30,10,05,11.60
2013,09,30,10,06,11.60
2013,09,30,10,07,11.70
2013,09,30,10,08,11.70
2013,09,30,10,09,11.80
2013,09,30,10,10,11.80
2013,09,30,10,11,11.80
2013,09,30,10,12,11.90
2013,09,30,10,13,12.00
2013,09,30,10,14,12.00
2013,09,30,10,15,12.10
2013,09,30,10,16,12.20
2013,09,30,10,17,12.20
2013,09,30,10,18,12.30
2013,09,30,10,19,12.30
2013,09,30,10,20,12.40
2013,09,30,10,21,12.40
2013,09,30,10,22,12.50
2013,09,30,10,23,12.50
2013,09,30,10,24,12.60
2013,09,30,10,25,12.60
2013,09,30,10,26,12.60
2013,09,30,10,27,12.60
2013,09,30,10,28,12.60
2013,09,30,10,29,12.70
2013,09,30,10,30,12.60
2013,09,30,10,31,12.60
2013,09,30,10,32,12.60
2013,09,30,10,33,12.60
2013,09,30,10,34,12.60
2013,09,30,10,35,12.60
2013,09,30,10,36,12.60
2013,09,30,10,37,12.60
2013,09,30,10,38,12.50
2013,09,30,10,39,12.50
2013,09,30,10,40,12.40
2013,09,30,10,41,12.40
2013,09,30,10,42,12.30
2013,09,30,10,43,12.20
2013,09,30,10,44,12.00
2013,09,30,10,45,11.80
2013,09,30,10,46,11.70
2013,09,30,10,47,11.60
2013,09,30,10,48,11.50
2013,09,30,10,49,11.50
2013,09,30,10,50,11.40
2013,09,30,10,51,11.40
2013,09,30,10,52,11.30
2013,09,30,10,53,11.30
2013,09,30,10,54,11.30
2013,09,30,10,55,11.30
2013,09,30,10,56,11.30
2013,09,30,10,57,11.30
2013,09,30,10,58,11.30
2013,09,30,10,59,11.30
2013,09,30,11,00,11.30
2013,09,30,11,01,11.30
2013,09,30,11,02,11.30
2013,09,30,11,03,11.30
2013,09,30,11,04,11.30
2013,09,30,11,05,11.30
2013,09,30,11,06,11.30
2013,09,30,11,07,11.30
2013,09,30,11,08,11.40
2013,09,30,11,09,11.40
2013,09,30,11,10,11.40
2013,09,30,11,11,11.40
2013,09,30,11,12,11.40
2013,09,30,11,13,11.40
2013,09,30,11,14,11.40
2013,09,30,11,15,11.50
2013,09,30,11,16,11.50
2013,09,30,11,17,11.50
2013,09,30,11,18,11.60
2013,09,30,11,19,11.60
2013,09,30,11,20,11.60
2013,09,30,11,21,11.60
2013,09,30,11,22,11.70
2013,09,30,11,23,11.70
2013,09,30,11,24,11.70
2013,09,30,11,25,11.70
2013,09,30,11,26,11.70
2013,09,30,11,27,11.80
2013,09,30,11,28,11.80
2013,09,30,11,29,11.80
2013,09,30,11,30,11.80
2013,09,30,11,31,11.80
2013,09,30,11,32,11.80
2013,09,30,11,33,11.80
2013,09,30,11,34,11.80
2013,09,30,11,35,11.80
2013,09,30,11,36,11.80
2013,09,30,11,37,11.80
2013,09,30,11,38,11.80
2013,09,30,11,39,11.80
2013,09,30,11,40,11.80
2013,09,30,11,41,11.80
2013,09,30,11,42,11.90
2013,09,30,11,43,11.90
2013,09,30,11,44,12.00
2013,09,30,11,45,12.10
2013,09,30,11,46,12.10
2013,09,30,11,47,12.20
2013,09,30,11,48,12.30
2013,09,30,11,49,12.30
2013,09,30,11,50,12.40
2013,09,30,11,51,12.40
2013,09,30,11,52,12.50
2013,09,30,11,53,12.50
2013,09,30,11,54,12.60
2013,09,30,11,55,12.60
2013,09,30,11,56,12.70
2013,09,30,11,57,12.70
2013,09,30,11,58,12.70
2013,09,30,11,59,12.70
2013,09,30,12,00,12.80
2013,09,30,12,01,12.80
2013,09,30,12,02,12.80
2013,09,30,12,03,12.80
2013,09,30,12,04,12.70
2013,09,30,12,05,12.70
2013,09,30,12,06,12.60
2013,09,30,12,07,12.50
2013,09,30,12,08,12.50
2013,09,30,12,09,12.40
2013,09,30,12,10,12.30
2013,09,30,12,11,12.20
2013,09,30,12,12,12.10
2013,09,30,12,13,12.00
2013,09,30,12,14,11.90
2013,09,30,12,15,11.80
2013,09,30,12,16,11.80
2013,09,30,12,17,11.70
2013,09,30,12,18,11.70
2013,09,30,12,19,11.70
2013,09,30,12,20,11.60
2013,09,30,12,21,11.60
2013,09,30,12,22,11.60
2013,09,30,12,23,11.60
2013,09,30,12,24,11.60
2013,09,30,12,25,11.60
2013,09,30,12,26,11.60
2013,09,30,12,27,11.50
2013,09,30,12,28,11.50
2013,09,30,12,29,11.50
2013,09,30,12,30,11.40
2013,09,30,12,31,11.40
2013,09,30,12,32,11.40
2013,09,30,12,33,11.40
2013,09,30,12,34,11.30
2013,09,30,12,35,11.20
2013,09,30,12,36,11.10
2013,09,30,12,37,11.10
2013,09,30,12,38,11.00
2013,09,30,12,39,10.90
2013,09,30,12,40,10.80
2013,09,30,12,41,10.80
2013,09,30,12,42,10.70
2013,09,30,12,43,10.70
2013,09,30,12,44,10.70
2013,09,30,12,45,10.70
2013,09,30,12,46,10.70
2013,09,30,12,47,10.70
2013,09,30,12,48,10.70
2013,09,30,12,49,10.70
2013,09,30,12,50,10.80
2013,09,30,12,51,10.80
2013,09,30,12,52,10.80
2013,09,30,12,53,10.90
2013,09,30,12,54,10.90
2013,09,30,12,55,10.90
2013,09,30,12,56,10.90
2013,09,30,12,57,10.90
2013,09,30,12,58,10.90
2013,09,30,12,59,11.00
2013,09,30,13,00,11.00
2013,09,30,13,01,11.10
2013,09,30,13,02,11.10
2013,09,30,13,03,11.10
2013,09,30,13,04,11.20
2013,09,30,13,05,11.20
2013,09,30,13,06,11.20
2013,09,30,13,07,11.20
2013,09,30,13,08,11.20
2013,09,30,13,09,11.30
2013,09,30,13,10,11.30
2013,09,30,13,11,11.30
2013,09,30,13,12,11.30
2013,09,30,13,13,11.40
2013,09,30,13,14,11.40
2013,09,30,13,15,11.40
2013,09,30,13,16,11.50
2013,09,30,13,17,11.50
2013,09,30,13,18,11.50
2013,09,30,13,19,11.60
2013,09,30,13,20,11.60
2013,09,30,13,21,11.70
2013,09,30,13,22,11.70
2013,09,30,13,23,11.80
2013,09,30,13,24,11.80
2013,09,30,13,25,11.80
2013,09,30,13,26,11.90
2013,09,30,13,27,11.90
2013,09,30,13,28,12.00
2013,09,30,13,29,12.00
2013,09,30,13,30,12.10
2013,09,30,13,31,12.10
2013,09,30,13,32,12.10
2013,09,30,13,33,12.20
2013,09,30,13,34,12.20
2013,09,30,13,35,12.20
2013,09,30,13,36,12.30
2013,09,30,13,37,12.30
2013,09,30,13,38,12.30
2013,09,30,13,39,12.30
2013,09,30,13,40,12.30
2013,09,30,13,41,12.30
2013,09,30,13,42,12.30
2013,09,30,13,43,12.20
2013,09,30,13,44,12.20
2013,09,30,13,45,12.20
2013,09,30,13,46,12.10
2013,09,30,13,47,12.10
2013,09,30,13,48,12.10
2013,09,30,13,49,12.00
2013,09,30,13,50,12.00
2013,09,30,13,51,12.10
2013,09,30,13,52,12.10
2013,09,30,13,53,12.10
2013,09,30,13,54,12.20
2013,09,30,13,55,12.20
2013,09,30,13,56,12.20
2013,09,30,13,57,12.30
2013,09,30,13,58,12.30
2013,09,30,13,59,12.30
2013,09,30,14,00,12.40
2013,09,30,14,01,12.40
2013,09,30,14,02,12.40
2013,09,30,14,03,12.50
2013,09,30,14,04,12.50
2013,09,30,14,05,12.50
2013,09,30,14,06,12.50
2013,09,30,14,07,12.60
2013,09,30,14,08,12.60
2013,09,30,14,09,12.60
2013,09,30,14,10,12.50
2013,09,30,14,11,12.50
2013,09,30,14,12,12.40
2013,09,30,14,13,12.30
2013,09,30,14,14,12.30
2013,09,30,14,15,12.20
2013,09,30,14,16,12.00
2013,09,30,14,17,11.90
2013,09,30,14,18,11.90
2013,09,30,14,19,11.80
2013,09,30,14,20,11.70
2013,09,30,14,21,11.60
2013,09,30,14,22,11.50
2013,09,30,14,23,11.50
2013,09,30,14,24,11.40
2013,09,30,14,25,11.30
2013,09,30,14,26,11.30
2013,09,30,14,27,11.20
2013,09,30,14,28,11.10
2013,09,30,14,29,11.00
2013,09,30,14,30,10.90
2013,09,30,14,31,10.80
2013,09,30,14,32,10.80
2013,09,30,14,33,10.70
2013,09,30,14,34,10.60
2013,09,30,14,35,10.50
2013,09,30,14,36,10.50
2013,09,30,14,37,10.40
2013,09,30,14,38,10.40
2013,09,30,14,39,10.30
2013,09,30,14,40,10.30
2013,09,30,14,41,10.30
2013,09,30,14,42,10.20
2013,09,30,14,43,10.20
2013,09,30,14,44,10.20
2013,09,30,14,45,10.10
2013,09,30,14,46,10.10
2013,09,30,14,47,10.10
2013,09,30,14,48,10.10
2013,09,30,14,49,10.10
2013,09,30,14,50,10.10
2013,09,30,14,51,10.20
2013,09,30,14,52,10.20
2013,09,30,14,53,10.20
2013,09,30,14,54,10.20
2013,09,30,14,55,10.30
2013,09,30,14,56,10.30
2013,09,30,14,57,10.40
2013,09,30,14,58,10.40
2013,09,30,14,59,10.50
2013,09,30,15,00,10.50
2013,09,30,15,01,10.60
2013,09,30,15,02,10.60
2013,09,30,15,03,10.70
2013,09,30,15,04,10.80
2013,09,30,15,05,10.80
2013,09,30,15,06,10.80
2013,09,30,15,07,10.90
2013,09,30,15,08,11.00
2013,09,30,15,09,11.00
2013,09,30,15,10,11.10
2013,09,30,15,11,11.10
2013,09,30,15,12,11.10
2013,09,30,15,13,11.20
2013,09,30,15,14,11.20
2013,09,30,15,15,11.20
2013,09,30,15,16,11.20
2013,09,30,15,17,11.20
2013,09,30,15,18,11.20
2013,09,30,15,19,11.20
2013,09,30,15,20,11.20
2013,09,30,15,21,11.20
2013,09,30,15,22,11.20
2013,09,30,15,23,11.20
2013,09,30,15,24,11.30
2013,09,30,15,25,11.30
2013,09,30,15,26,11.30
2013,09,30,15,27,11.30
2013,09,30,15,28,11.30
2013,09,30,15,29,11.30
2013,09,30,15,30,11.30
2013,09,30,15,31,11.30
2013,09,30,15,32,11.30
2013,09,30,15,33,11.30
2013,09,30,15,34,11.40
2013,09,30,15,35,11.40
2013,09,30,15,36,11.40
2013,09,30,15,37,11.40
2013,09,30,15,38,11.40
2013,09,30,15,39,11.40
2013,09,30,15,40,11.50
2013,09,30,15,41,11.50
2013,09,30,15,42,11.50
2013,09,30,15,43,11.50
2013,09,30,15,44,11.40
2013,09,30,15,45,11.40
2013,09,30,15,46,11.40
2013,09,30,15,47,11.40
2013,09,30,15,48,11.40
2013,09,30,15,49,11.40
2013,09,30,15,50,11.30
2013,09,30,15,51,11.30
2013,09,30,15,52,11.30
2013,09,30,15,53,11.30
2013,09,30,15,54,11.30
2013,09,30,15,55,11.20
2013,09,30,15,56,11.20
2013,09,30,15,57,11.20
2013,09,30,15,58,11.20
2013,09,30,15,59,11.20
2013,09,30,16,00,11.20
2013,09,30,16,01,11.20
2013,09,30,16,02,11.20
2013,09,30,16,03,11.20
2013,09,30,16,04,11.10
2013,09,30,16,05,11.10
2013,09,30,16,06,11.10
2013,09,30,16,07,11.10
2013,09,30,16,08,11.10
2013,09,30,16,09,11.10
2013,09,30,16,10,11.10
2013,09,30,16,11,11.10
2013,09,30,16,12,11.10
2013,09,30,16,13,11.10
2013,09,30,16,14,11.10
2013,09,30,16,15,11.00
2013,09,30,16,16,11.00
2013,09,30,16,17,11.00
2013,09,30,16,18,10.90
2013,09,30,16,19,11.00
2013,09,30,16,20,11.00
2013,09,30,16,21,11.00
2013,09,30,16,22,11.00
2013,09,30,16,23,11.10
2013,09,30,16,24,11.20
2013,09,30,16,25,11.20
2013,09,30,16,26,11.30
2013,09,30,16,27,11.30
2013,09,30,16,28,11.40
2013,09,30,16,29,11.40
2013,09,30,16,30,11.50
2013,09,30,16,31,11.60
2013,09,30,16,32,11.70
2013,09,30,16,33,11.70
2013,09,30,16,34,11.80
2013,09,30,16,35,11.80
2013,09,30,16,36,11.90
2013,09,30,16,37,11.90
2013,09,30,16,38,12.00
2013,09,30,16,39,12.00
2013,09,30,16,40,12.10
2013,09,30,16,41,12.10
2013,09,30,16,42,12.10
2013,09,30,16,43,12.10
2013,09,30,16,44,12.10
2013,09,30,16,45,12.10
2013,09,30,16,46,12.10
2013,09,30,16,47,12.00
2013,09,30,16,48,12.00
2013,09,30,16,49,12.00
2013,09,30,16,50,11.90
2013,09,30,16,51,11.90
2013,09,30,16,52,11.90
2013,09,30,16,53,11.80
2013,09,30,16,54,11.80
2013,09,30,16,55,11.70
2013,09,30,16,56,11.70
2013,09,30,16,57,11.70
2013,09,30,16,58,11.60
2013,09,30,16,59,11.60
2013,09,30,17,00,11.60
2013,09,30,17,01,11.50
2013,09,30,17,02,11.50
2013,09,30,17,03,11.50
2013,09,30,17,04,11.40
2013,09,30,17,05,11.40
2013,09,30,17,06,11.40
2013,09,30,17,07,11.30
2013,09,30,17,08,11.30
2013,09,30,17,09,11.30
2013,09,30,17,10,11.20
2013,09,30,17,11,11.20
2013,09,30,17,12,11.20
2013,09,30,17,13,11.20
2013,09,30,17,14,11.10
2013,09,30,17,15,11.10
2013,09,30,17,16,11.10
2013,09,30,17,17,11.00
2013,09,30,17,18,11.00
2013,09,30,17,19,11.00
2013,09,30,17,20,10.90
2013,09,30,17,21,10.90
2013,09,30,17,22,10.90
2013,09,30,17,23,10.80
2013,09,30,17,24,10.80
2013,09,30,17,25,10.80
2013,09,30,17,26,10.80
2013,09,30,17,27,10.80
2013,09,30,17,28,10.70
2013,09,30,17,29,10.70
2013,09,30,17,30,10.70
2013,09,30,17,31,10.60
2013,09,30,17,32,10.50
2013,09,30,17,33,10.30
2013,09,30,17,34,10.20
2013,09,30,17,35,10.00
2013,09,30,17,36,9.70
2013,09,30,17,37,9.40
2013,09,30,17,38,9.20
2013,09,30,17,39,8.90
2013,09,30,17,40,8.70
2013,09,30,17,41,8.60
2013,09,30,17,42,8.60
2013,09,30,17,43,8.50
2013,09,30,17,44,8.40
2013,09,30,17,45,8.40
2013,09,30,17,46,8.40
2013,09,30,17,47,8.40
2013,09,30,17,48,8.40
2013,09,30,17,49,8.40
2013,09,30,17,50,8.40
2013,09,30,17,51,8.40
2013,09,30,17,52,8.30
2013,09,30,17,53,8.30
2013,09,30,17,54,8.30
2013,09,30,17,55,8.30
2013,09,30,17,56,8.30
2013,09,30,17,57,8.30
2013,09,30,17,58,8.30
2013,09,30,17,59,8.30
2013,09,30,18,00,8.30
2013,09,30,18,01,8.30
2013,09,30,18,02,8.30
2013,09,30,18,03,8.30
2013,09,30,18,04,8.30
2013,09,30,18,05,8.30
2013,09,30,18,06,8.30
2013,09,30,18,07,8.30
2013,09,30,18,08,8.30
2013,09,30,18,09,8.30
2013,09,30,18,10,8.40
2013,09,30,18,11,8.40
2013,09,30,18,12,8.40
2013,09,30,18,13,8.40
2013,09,30,18,14,8.30
2013,09,30,18,15,8.30
2013,09,30,18,16,8.30
2013,09,30,18,17,8.30
2013,09,30,18,18,8.30
2013,09,30,18,19,8.30
2013,09,30,18,20,8.20
2013,09,30,18,21,8.20
2013,09,30,18,22,8.20
2013,09,30,18,23,8.20
2013,09,30,18,24,8.20
2013,09,30,18,25,8.20
2013,09,30,18,26,8.20
2013,09,30,18,27,8.20
2013,09,30,18,28,8.20
2013,09,30,18,29,8.10
2013,09,30,18,30,8.10
2013,09,30,18,31,8.10
2013,09,30,18,32,8.10
2013,09,30,18,33,8.10
2013,09,30,18,34,8.10
2013,09,30,18,35,8.10
2013,09,30,18,36,8.20
2013,09,30,18,37,8.20
2013,09,30,18,38,8.10
2013,09,30,18,39,8.20
2013,09,30,18,40,8.10
2013,09,30,18,41,8.20
2013,09,30,18,42,8.10
2013,09,30,18,43,8.10
2013,09,30,18,44,8.10
2013,09,30,18,45,8.10
2013,09,30,18,46,8.10
2013,09,30,18,47,8.20
2013,09,30,18,48,8.20
2013,09,30,18,49,8.20
2013,09,30,18,50,8.20
2013,09,30,18,51,8.20
2013,09,30,18,52,8.20
2013,09,30,18,53,8.20
2013,09,30,18,54,8.20
2013,09,30,18,55,8.20
2013,09,30,18,56,8.10
2013,09,30,18,57,8.10
2013,09,30,18,58,8.10
2013,09,30,18,59,8.10
2013,09,30,19,00,8.10
2013,09,30,19,01,8.10
2013,09,30,19,02,8.10
2013,09,30,19,03,8.10
2013,09,30,19,04,8.10
2013,09,30,19,05,8.00
2013,09,30,19,06,8.00
2013,09,30,19,07,8.00
2013,09,30,19,08,8.00
2013,09,30,19,09,8.00
2013,09,30,19,10,8.00
2013,09,30,19,11,8.00
2013,09,30,19,12,8.00
2013,09,30,19,13,8.00
2013,09,30,19,14,8.00
2013,09,30,19,15,8.00
2013,09,30,19,16,8.00
2013,09,30,19,17,8.00
2013,09,30,19,18,8.00
2013,09,30,19,19,8.00
2013,09,30,19,20,8.00
2013,09,30,19,21,8.00
2013,09,30,19,22,8.00
2013,09,30,19,23,8.00
2013,09,30,19,24,8.00
2013,09,30,19,25,8.00
2013,09,30,19,26,8.00
2013,09,30,19,27,8.00
2013,09,30,19,28,8.00
2013,09,30,19,29,8.00
2013,09,30,19,30,8.10
2013,09,30,19,31,8.10
2013,09,30,19,32,8.10
2013,09,30,19,33,8.10
2013,09,30,19,34,8.10
2013,09,30,19,35,8.10
2013,09,30,19,36,8.10
2013,09,30,19,37,8.00
2013,09,30,19,38,8.00
2013,09,30,19,39,8.00
2013,09,30,19,40,8.00
2013,09,30,19,41,8.00
2013,09,30,19,42,8.00
2013,09,30,19,43,8.00
2013,09,30,19,44,8.00
2013,09,30,19,45,8.00
2013,09,30,19,46,8.00
2013,09,30,19,47,8.00
2013,09,30,19,48,8.00
2013,09,30,19,49,8.00
2013,09,30,19,50,8.00
2013,09,30,19,51,8.00
2013,09,30,19,52,8.10
2013,09,30,19,53,8.10
2013,09,30,19,54,8.10
2013,09,30,19,55,8.10
2013,09,30,19,56,8.10
2013,09,30,19,57,8.10
2013,09,30,19,58,8.10
2013,09,30,19,59,8.10
2013,09,30,20,00,8.10
2013,09,30,20,01,8.10
2013,09,30,20,02,8.10
2013,09,30,20,03,8.10
2013,09,30,20,04,8.10
2013,09,30,20,05,8.10
2013,09,30,20,06,8.10
2013,09,30,20,07,8.10
2013,09,30,20,08,8.10
2013,09,30,20,09,8.20
2013,09,30,20,10,8.30
2013,09,30,20,11,8.30
2013,09,30,20,12,8.30
2013,09,30,20,13,8.30
2013,09,30,20,14,8.30
2013,09,30,20,15,8.30
2013,09,30,20,16,8.30
2013,09,30,20,17,8.30
2013,09,30,20,18,8.30
2013,09,30,20,19,8.30
2013,09,30,20,20,8.30
2013,09,30,20,21,8.30
2013,09,30,20,22,8.30
2013,09,30,20,23,8.30
2013,09,30,20,24,8.30
2013,09,30,20,25,8.30
2013,09,30,20,26,8.20
2013,09,30,20,27,8.20
2013,09,30,20,28,8.20
2013,09,30,20,29,8.10
2013,09,30,20,30,8.10
2013,09,30,20,31,8.10
2013,09,30,20,32,8.10
2013,09,30,20,33,8.10
2013,09,30,20,34,8.10
2013,09,30,20,35,8.10
2013,09,30,20,36,8.10
2013,09,30,20,37,8.10
2013,09,30,20,38,8.10
2013,09,30,20,39,8.10
2013,09,30,20,40,8.10
2013,09,30,20,41,8.10
2013,09,30,20,42,8.10
2013,09,30,20,43,8.10
2013,09,30,20,44,8.10
2013,09,30,20,45,8.10
2013,09,30,20,46,8.20
2013,09,30,20,47,8.20
2013,09,30,20,48,8.20
2013,09,30,20,49,8.20
2013,09,30,20,50,8.20
2013,09,30,20,51,8.20
2013,09,30,20,52,8.20
2013,09,30,20,53,8.20
2013,09,30,20,54,8.30
2013,09,30,20,55,8.30
2013,09,30,20,56,8.30
2013,09,30,20,57,8.30